Flag for U.S.A. Weather past 2 weeks in Clearwater, Florida, U.S.A.

Now
82 °F

Sunny.


Feels Like: 84 °F
Forecast: 65 / 80 °F
Wind: 18 mph from South

Location: St. Petersburg / Clearwater International Airport

Current Time: Mar 4, 2015 at 2:48:28 PM

Latest Report: Mar 4, 2015 at 1:53 PM


Visibility: 10 mi

Pressure: 30.10 "Hg

Humidity: 58%

Dew point: 66 °F

Location of ClearwaterLocation

Historic Weather in Clearwater — Graph

°F

Clearwater temperature yesterday

Maximum temperature yesterday: 82 °F (at 2:53 PM)
Minimum temperature yesterday: 66 °F (at 2:53 AM)
Average temperature yesterday: 72 °F

Past Weeks' High & Low Weather Summary

 TemperatureHumidityPressure
High82 °F (Mar 3, 2:53 PM)100% (Feb 17, 4:53 PM)30.44 "Hg (Feb 17, 4:53 PM)
Low37 °F (Feb 20, 5:53 AM)21% (Feb 20, 2:53 PM)29.70 "Hg (Feb 26, 1:53 AM)
Average62 °F79%30.15 "Hg
* Reported Feb 17 12:53 PM — Mar 4 12:53 PM, Clearwater, Weather by CustomWeather, © 2015

Note: Actual official high and low records may vary slightly from our data, if they occured in-between our weather recording intervals... More about our weather records

Advertising

Clearwater weather history for previous 24 hours

 ConditionsComfort  
Time TempWeatherWind HumidityBarometerVisibility
12:53 PM
Wed, Mar 4
82 °FSunny.18 mph55%30.12 "Hg10 mi
11:53 AM81 °FSunny.16 mph62%30.14 "Hg10 mi
10:53 AM78 °FPassing clouds.15 mph71%30.16 "Hg10 mi
9:53 AM75 °FPassing clouds.13 mph82%30.16 "Hg10 mi
8:53 AM72 °FSunny.12 mph87%30.16 "Hg10 mi
7:53 AM69 °FSunny.8 mph93%30.14 "Hg10 mi
6:53 AM66 °FSunny.7 mph96%30.13 "Hg10 mi
5:53 AM65 °FClear.5 mph97%30.11 "Hg10 mi
4:53 AM65 °FClear.6 mph97%30.09 "Hg10 mi
3:53 AM66 °FClear.7 mph93%30.09 "Hg10 mi
2:53 AM65 °FClear.6 mph97%30.10 "Hg10 mi
1:53 AM64 °FFog.No wind100%30.12 "Hg3 mi
12:53 AM68 °FClear.No wind93%30.14 "Hg10 mi
11:53 PM
Tue, Mar 3
69 °FClear.5 mph93%30.15 "Hg10 mi
10:53 PM69 °FClear.No wind93%30.15 "Hg10 mi
9:53 PM70 °FClear.3 mph90%30.15 "Hg10 mi
8:53 PM70 °FClear.5 mph87%30.14 "Hg10 mi
7:53 PM70 °FClear.5 mph87%30.13 "Hg10 mi
6:53 PM72 °FPassing clouds.5 mph78%30.11 "Hg10 mi
5:53 PM76 °FPassing clouds.8 mph72%30.10 "Hg10 mi
4:53 PM79 °FScattered clouds.13 mph67%30.10 "Hg10 mi
3:53 PM82 °FPartly sunny.10 mph56%30.10 "Hg10 mi
2:53 PM82 °FSunny.8 mph58%30.11 "Hg10 mi
Weather by CustomWeather, © 2015

See weather overviewHow to use our weather pages